Amendola Airport LIBA

Flugplatz Daten

Name: Amendola Airport

Ident: LIBA

Lat: 41,54140091

Long: 15,71809959

Platzhöhe: 183 ft

IataCode:

City: Foggia

Metar

2022/08/13 17:55
LIBA 131755Z 29009KT 9999 FEW040 22/16 Q1011 RMK SCT SCT110 VIS MIN 9999 WIND THR11 29010KT WIND THR29 /////KT BLU

Taf

2021/12/02 18:24
TAF TAF LIBA 021700Z 0218/0306 14012KT 9999 SCT030 SCT060
TEMPO 0302/0306 7000 RA BKN030 BKN060
Gewünschte Webcam nicht vorhanden? Dann fügen Sie eine hinzu. Sie wird dann so schnell wie möglich freigeschaltet
Url: Title: